NV6B Weather Reports


Display with metric or nautical units.
time (UTC)temp
F
wind
direction
speed
MPH
gust
MPH
rain 1hr
in
rain 24hr
in
rain mn
in
humidity
%
barometer
mb
20260831200511 83 73 3.0 5.0 0.00 0.00 0.00 15 1015.5
20260831195451 82 86 3.0 6.0 0.00 0.00 0.00 16 1015.7
20260831194451 79 123 3.0 4.0 0.00 0.00 0.00 16 1015.9
20260831193451 81 59 3.0 4.0 0.00 0.00 0.00 16 1016.1
20260831192451 80 115 1.0 7.0 0.00 0.00 0.00 15 1016.3
20260831191451 79 52 3.0 6.0 0.00 0.00 0.00 19 1016.5
20260831162449 65 95 2.0 4.0 0.00 0.00 0.00 27 1018.5
20260831161449 63 177 2.0 5.0 0.00 0.00 0.00 30 1018.6
20260831160449 62 144 4.0 4.0 0.00 0.00 0.00 33 1018.6
20260831155449 60 174 3.0 3.0 0.00 0.00 0.00 35 1018.8
20260831154449 60 174 3.0 5.0 0.00 0.00 0.00 36 1018.9
20260831153450 60 121 2.0 5.0 0.00 0.00 0.00 37 1018.9
20260831124447 44 127 2.0 3.0 0.00 0.00 0.00 49 1018.1
20260831123447 44 126 3.0 3.0 0.00 0.00 0.00 49 1018.0
20260831122447 44 126 2.0 2.0 0.00 0.00 0.00 49 1017.9
20260831121447 44 126 1.0 2.0 0.00 0.00 0.00 48 1017.8
20260831120447 44 126 0.0 2.0 0.00 0.00 0.00 48 1017.7
20260831115447 45 126 2.0 3.0 0.00 0.00 0.00 47 1017.7
20260831114447 45 126 1.0 3.0 0.00 0.00 0.00 47 1017.8
20260831113447 45 125 2.0 3.0 0.00 0.00 0.00 48 1017.8
20260831112447 45 125 0.0 3.0 0.00 0.00 0.00 48 1017.8
20260831111447 46 125 0.0 3.0 0.00 0.00 0.00 48 1017.8
20260831110446 46 125 2.0 3.0 0.00 0.00 0.00 47 1017.7
20260831105446 46 125 1.0 3.0 0.00 0.00 0.00 46 1017.8
20260831080445 52 156 0.0 0.0 0.00 0.00 0.00 47 1017.4
20260831075445 52 156 0.0 4.0 0.00 0.00 0.00 48 1017.3
20260831074444 52 156 0.0 0.0 0.00 0.00 0.00 46 1017.4
20260831073444 52 156 0.0 0.0 0.00 0.00 0.00 46 1017.4
20260831050443 56 2 0.0 0.0 0.00 0.00 0.00 44 1017.3
20260831045443 56 2 0.0 0.0 0.00 0.00 0.00 41 1017.3
20260831044443 57 2 0.0 0.0 0.00 0.00 0.00 40 1017.3
20260831043443 58 2 0.0 0.0 0.00 0.00 0.00 40 1017.2
20260831042442 58 2 0.0 0.0 0.00 0.00 0.00 40 1017.2
20260831041442 59 2 0.0 1.0 0.00 0.00 0.00 39 1017.3
20260831040503 59 2 0.0 1.0 0.00 0.00 0.00 36 1017.2
20260831035442 60 2 0.0 0.0 0.00 0.00 0.00 35 1017.1
20260831011441 72 351 3.0 9.0 0.00 0.00 0.00 21 1016.7
20260831010441 72 351 4.0 9.0 0.00 0.00 0.00 19 1016.6
20260831005441 72 2 2.0 10.0 0.00 0.00 0.00 21 1016.6
20260831004441 73 12 4.0 10.0 0.00 0.00 0.00 22 1016.8
20260831003440 73 15 5.0 10.0 0.00 0.00 0.00 22 1016.8
20260831002441 73 360 3.0 9.0 0.00 0.00 0.00 20 1016.8